Location: Izdebno
(52.6670°N, 16.2170°E)
Time: 13:33:56
(UTC+02:00)

A-11 Canister half - Pass Details

Date: 29 February 2024
Orbit: 1525 x 1683 km, 47.3° (Epoch: 24 April)

Event Time Altitude Azimuth Distance (km) Brightness Sun altitude
Rises 19:54:22 0° 226° (SW) 4,787 12.0 -22.0°
Reaches altitude 10° 19:57:39 10° 221° (SW) 3,781 11.3 -22.5°
Maximum altitude 20:06:30 45° 153° (SSE) 2,013 9.2 -23.8°
Enters shadow 20:08:49 39° 119° (ESE) 2,175 9.2 -24.1°
